owner,sensor,date,latitude,longitude,air_temperature,qcFlag 
COMPS,ioos:station:USF.COMPS:BGC:1,2013-01-01T00:00:00Z,26.4040,-81.8810,18.79,1111122 
COMPS,ioos:station:USF.COMPS:BGC:1,2013-01-01T00:06:00Z,26.4040,-81.8810,18.42,1111122 
COMPS,ioos:station:USF.COMPS:BGC:1,2013-01-01T00:12:00Z,26.4040,-81.8810,18.7,1111122 
COMPS,ioos:station:USF.COMPS:BGC:1,2013-01-01T00:18:00Z,26.4040,-81.8810,18.98,1111122 
COMPS,ioos:station:USF.COMPS:BGC:1,2013-01-01T00:24:00Z,26.4040,-81.8810,18.89,1111122 
COMPS,ioos:station:USF.COMPS:BGC:1,2013-01-01T00:30:00Z,26.4040,-81.8810,18.77,1111122 
COMPS,ioos:station:USF.COMPS:BGC:1,2013-01-01T00:36:00Z,26.4040,-81.8810,18.72,1111122 
COMPS,ioos:station:USF.COMPS:BGC:1,2013-01-01T00:42:00Z,26.4040,-81.8810,18.61,1111122 
COMPS,ioos:station:USF.COMPS:BGC:1,2013-01-01T00:48:00Z,26.4040,-81.8810,18.43,1111122 
COMPS,ioos:station:USF.COMPS:BGC:1,2013-01-01T00:54:00Z,26.4040,-81.8810,18.34,1111122 
COMPS,ioos:station:USF.COMPS:BGC:1,2013-01-01T01:00:00Z,26.4040,-81.8810,18.3,1111122 
COMPS,ioos:station:USF.COMPS:BGC:1,2013-01-01T01:06:00Z,26.4040,-81.8810,18.89,1111122 
COMPS,ioos:station:USF.COMPS:BGC:1,2013-01-01T01:12:00Z,26.4040,-81.8810,19.22,1111122 
COMPS,ioos:station:USF.COMPS:BGC:1,2013-01-01T01:18:00Z,26.4040,-81.8810,19.32,1111122 
COMPS,ioos:station:USF.COMPS:BGC:1,2013-01-01T01:24:00Z,26.4040,-81.8810,19.15,1111122 
COMPS,ioos:station:USF.COMPS:BGC:1,2013-01-01T01:30:00Z,26.4040,-81.8810,18.92,1111122 
COMPS,ioos:station:USF.COMPS:BGC:1,2013-01-01T01:36:00Z,26.4040,-81.8810,18.94,1111122 
COMPS,ioos:station:USF.COMPS:BGC:1,2013-01-01T01:42:00Z,26.4040,-81.8810,18.94,1111122 
COMPS,ioos:station:USF.COMPS:BGC:1,2013-01-01T01:48:00Z,26.4040,-81.8810,18.83,1111122 
COMPS,ioos:station:USF.COMPS:BGC:1,2013-01-01T01:54:00Z,26.4040,-81.8810,18.73,1111122 
COMPS,ioos:station:USF.COMPS:BGC:1,2013-01-01T02:00:00Z,26.4040,-81.8810,18.7,1111122 
COMPS,ioos:station:USF.COMPS:BGC:1,2013-01-01T02:06:00Z,26.4040,-81.8810,18.59,1111122 
COMPS,ioos:station:USF.COMPS:BGC:1,2013-01-01T02:12:00Z,26.4040,-81.8810,18.64,1111122 
COMPS,ioos:station:USF.COMPS:BGC:1,2013-01-01T02:18:00Z,26.4040,-81.8810,18.65,1111122 
COMPS,ioos:station:USF.COMPS:BGC:1,2013-01-01T02:24:00Z,26.4040,-81.8810,18.69,1111122 
COMPS,ioos:station:USF.COMPS:BGC:1,2013-01-01T02:30:00Z,26.4040,-81.8810,18.6,1111122 
COMPS,ioos:station:USF.COMPS:BGC:1,2013-01-01T02:36:00Z,26.4040,-81.8810,18.56,1111122 
COMPS,ioos:station:USF.COMPS:BGC:1,2013-01-01T02:42:00Z,26.4040,-81.8810,18.53,1111122 
COMPS,ioos:station:USF.COMPS:BGC:1,2013-01-01T02:48:00Z,26.4040,-81.8810,18.49,1111122 
COMPS,ioos:station:USF.COMPS:BGC:1,2013-01-01T02:54:00Z,26.4040,-81.8810,18.5,1111122 
COMPS,ioos:station:USF.COMPS:BGC:1,2013-01-01T03:00:00Z,26.4040,-81.8810,18.5,1111122 
COMPS,ioos:station:USF.COMPS:BGC:1,2013-01-01T03:06:00Z,26.4040,-81.8810,18.33,1111122 
COMPS,ioos:station:USF.COMPS:BGC:1,2013-01-01T03:12:00Z,26.4040,-81.8810,18.4,1111122 
COMPS,ioos:station:USF.COMPS:BGC:1,2013-01-01T03:18:00Z,26.4040,-81.8810,18.53,1111122 
COMPS,ioos:station:USF.COMPS:BGC:1,2013-01-01T03:24:00Z,26.4040,-81.8810,18.53,1111122 
COMPS,ioos:station:USF.COMPS:BGC:1,2013-01-01T03:30:00Z,26.4040,-81.8810,18.5,1111122 
COMPS,ioos:station:USF.COMPS:BGC:1,2013-01-01T03:36:00Z,26.4040,-81.8810,18.44,1111122 
COMPS,ioos:station:USF.COMPS:BGC:1,2013-01-01T03:42:00Z,26.4040,-81.8810,18.22,1111122 
COMPS,ioos:station:USF.COMPS:BGC:1,2013-01-01T03:48:00Z,26.4040,-81.8810,17.97,1111122 
COMPS,ioos:station:USF.COMPS:BGC:1,2013-01-01T03:54:00Z,26.4040,-81.8810,18.0,1111122 
COMPS,ioos:station:USF.COMPS:BGC:1,2013-01-01T04:00:00Z,26.4040,-81.8810,18.0,1111122 
COMPS,ioos:station:USF.COMPS:BGC:1,2013-01-01T04:06:00Z,26.4040,-81.8810,18.12,1111122 
COMPS,ioos:station:USF.COMPS:BGC:1,2013-01-01T04:12:00Z,26.4040,-81.8810,17.97,1111122 
COMPS,ioos:station:USF.COMPS:BGC:1,2013-01-01T04:18:00Z,26.4040,-81.8810,17.92,1111122 
COMPS,ioos:station:USF.COMPS:BGC:1,2013-01-01T04:24:00Z,26.4040,-81.8810,17.88,1111122 
COMPS,ioos:station:USF.COMPS:BGC:1,2013-01-01T04:30:00Z,26.4040,-81.8810,17.76,1111122 
COMPS,ioos:station:USF.COMPS:BGC:1,2013-01-01T04:36:00Z,26.4040,-81.8810,17.71,1111122 
COMPS,ioos:station:USF.COMPS:BGC:1,2013-01-01T04:42:00Z,26.4040,-81.8810,17.75,1111122 
COMPS,ioos:station:USF.COMPS:BGC:1,2013-01-01T04:48:00Z,26.4040,-81.8810,17.69,1111122 
COMPS,ioos:station:USF.COMPS:BGC:1,2013-01-01T04:54:00Z,26.4040,-81.8810,17.76,1111122 
COMPS,ioos:station:USF.COMPS:BGC:1,2013-01-01T05:00:00Z,26.4040,-81.8810,17.8,1111122 
COMPS,ioos:station:USF.COMPS:BGC:1,2013-01-01T05:06:00Z,26.4040,-81.8810,17.71,1111122 
COMPS,ioos:station:USF.COMPS:BGC:1,2013-01-01T05:12:00Z,26.4040,-81.8810,17.89,1111122 
COMPS,ioos:station:USF.COMPS:BGC:1,2013-01-01T05:18:00Z,26.4040,-81.8810,17.89,1111122 
COMPS,ioos:station:USF.COMPS:BGC:1,2013-01-01T05:24:00Z,26.4040,-81.8810,17.91,1111122 
COMPS,ioos:station:USF.COMPS:BGC:1,2013-01-01T05:30:00Z,26.4040,-81.8810,17.65,1111122 
COMPS,ioos:station:USF.COMPS:BGC:1,2013-01-01T05:36:00Z,26.4040,-81.8810,17.47,1111122 
COMPS,ioos:station:USF.COMPS:BGC:1,2013-01-01T05:42:00Z,26.4040,-81.8810,17.59,1111122 
COMPS,ioos:station:USF.COMPS:BGC:1,2013-01-01T05:48:00Z,26.4040,-81.8810,17.49,1111122 
COMPS,ioos:station:USF.COMPS:BGC:1,2013-01-01T05:54:00Z,26.4040,-81.8810,17.44,1111122 
COMPS,ioos:station:USF.COMPS:BGC:1,2013-01-01T06:00:00Z,26.4040,-81.8810,17.4,1111122 
COMPS,ioos:station:USF.COMPS:BGC:1,2013-01-01T06:06:00Z,26.4040,-81.8810,17.33,1111122 
COMPS,ioos:station:USF.COMPS:BGC:1,2013-01-01T06:12:00Z,26.4040,-81.8810,17.24,1111122 
COMPS,ioos:station:USF.COMPS:BGC:1,2013-01-01T06:18:00Z,26.4040,-81.8810,17.18,1111122 
COMPS,ioos:station:USF.COMPS:BGC:1,2013-01-01T06:24:00Z,26.4040,-81.8810,17.29,1111122 
COMPS,ioos:station:USF.COMPS:BGC:1,2013-01-01T06:30:00Z,26.4040,-81.8810,17.24,1111122 
COMPS,ioos:station:USF.COMPS:BGC:1,2013-01-01T06:36:00Z,26.4040,-81.8810,17.17,1111122 
COMPS,ioos:station:USF.COMPS:BGC:1,2013-01-01T06:42:00Z,26.4040,-81.8810,17.1,1111122 
COMPS,ioos:station:USF.COMPS:BGC:1,2013-01-01T06:48:00Z,26.4040,-81.8810,17.04,1111122 
COMPS,ioos:station:USF.COMPS:BGC:1,2013-01-01T06:54:00Z,26.4040,-81.8810,17.04,1111122 
COMPS,ioos:station:USF.COMPS:BGC:1,2013-01-01T07:00:00Z,26.4040,-81.8810,17.0,1111122 
COMPS,ioos:station:USF.COMPS:BGC:1,2013-01-01T07:06:00Z,26.4040,-81.8810,17.21,1111122 
COMPS,ioos:station:USF.COMPS:BGC:1,2013-01-01T07:12:00Z,26.4040,-81.8810,17.32,1111122 
COMPS,ioos:station:USF.COMPS:BGC:1,2013-01-01T07:18:00Z,26.4040,-81.8810,17.38,1111122 
COMPS,ioos:station:USF.COMPS:BGC:1,2013-01-01T07:24:00Z,26.4040,-81.8810,17.4,1111122 
COMPS,ioos:station:USF.COMPS:BGC:1,2013-01-01T07:30:00Z,26.4040,-81.8810,17.37,1111122 
COMPS,ioos:station:USF.COMPS:BGC:1,2013-01-01T07:36:00Z,26.4040,-81.8810,17.35,1111122 
COMPS,ioos:station:USF.COMPS:BGC:1,2013-01-01T07:42:00Z,26.4040,-81.8810,17.36,1111122 
COMPS,ioos:station:USF.COMPS:BGC:1,2013-01-01T07:48:00Z,26.4040,-81.8810,17.37,1111122 
COMPS,ioos:station:USF.COMPS:BGC:1,2013-01-01T07:54:00Z,26.4040,-81.8810,17.42,1111122 
COMPS,ioos:station:USF.COMPS:BGC:1,2013-01-01T08:00:00Z,26.4040,-81.8810,17.4,1111122 
COMPS,ioos:station:USF.COMPS:BGC:1,2013-01-01T08:06:00Z,26.4040,-81.8810,17.4,1111122 
COMPS,ioos:station:USF.COMPS:BGC:1,2013-01-01T08:12:00Z,26.4040,-81.8810,17.33,1111122 
COMPS,ioos:station:USF.COMPS:BGC:1,2013-01-01T08:18:00Z,26.4040,-81.8810,17.38,1111122 
COMPS,ioos:station:USF.COMPS:BGC:1,2013-01-01T08:24:00Z,26.4040,-81.8810,17.42,1111122 
COMPS,ioos:station:USF.COMPS:BGC:1,2013-01-01T08:30:00Z,26.4040,-81.8810,17.43,1111122 
COMPS,ioos:station:USF.COMPS:BGC:1,2013-01-01T08:36:00Z,26.4040,-81.8810,17.4,1111122 
COMPS,ioos:station:USF.COMPS:BGC:1,2013-01-01T08:42:00Z,26.4040,-81.8810,17.46,1111122 
COMPS,ioos:station:USF.COMPS:BGC:1,2013-01-01T08:48:00Z,26.4040,-81.8810,17.65,1111122 
COMPS,ioos:station:USF.COMPS:BGC:1,2013-01-01T08:54:00Z,26.4040,-81.8810,17.73,1111122 
COMPS,ioos:station:USF.COMPS:BGC:1,2013-01-01T09:00:00Z,26.4040,-81.8810,17.7,1111122 
COMPS,ioos:station:USF.COMPS:BGC:1,2013-01-01T09:06:00Z,26.4040,-81.8810,17.66,1111122 
COMPS,ioos:station:USF.COMPS:BGC:1,2013-01-01T09:12:00Z,26.4040,-81.8810,17.65,1111122 
COMPS,ioos:station:USF.COMPS:BGC:1,2013-01-01T09:18:00Z,26.4040,-81.8810,17.76,1111122 
COMPS,ioos:station:USF.COMPS:BGC:1,2013-01-01T09:24:00Z,26.4040,-81.8810,17.68,1111122 
COMPS,ioos:station:USF.COMPS:BGC:1,2013-01-01T09:30:00Z,26.4040,-81.8810,17.57,1111122 
COMPS,ioos:station:USF.COMPS:BGC:1,2013-01-01T09:36:00Z,26.4040,-81.8810,17.58,1111122 
COMPS,ioos:station:USF.COMPS:BGC:1,2013-01-01T09:42:00Z,26.4040,-81.8810,17.62,1111122 
COMPS,ioos:station:USF.COMPS:BGC:1,2013-01-01T09:48:00Z,26.4040,-81.8810,17.7,1111122 
COMPS,ioos:station:USF.COMPS:BGC:1,2013-01-01T09:54:00Z,26.4040,-81.8810,17.78,1111122 
COMPS,ioos:station:USF.COMPS:BGC:1,2013-01-01T10:00:00Z,26.4040,-81.8810,17.8,1111122 
COMPS,ioos:station:USF.COMPS:BGC:1,2013-01-01T10:06:00Z,26.4040,-81.8810,17.91,1111122 
COMPS,ioos:station:USF.COMPS:BGC:1,2013-01-01T10:12:00Z,26.4040,-81.8810,17.89,1111122 
COMPS,ioos:station:USF.COMPS:BGC:1,2013-01-01T10:18:00Z,26.4040,-81.8810,17.91,1111122 
COMPS,ioos:station:USF.COMPS:BGC:1,2013-01-01T10:24:00Z,26.4040,-81.8810,17.84,1111122 
COMPS,ioos:station:USF.COMPS:BGC:1,2013-01-01T10:30:00Z,26.4040,-81.8810,17.69,1111122 
COMPS,ioos:station:USF.COMPS:BGC:1,2013-01-01T10:36:00Z,26.4040,-81.8810,17.64,1111122 
COMPS,ioos:station:USF.COMPS:BGC:1,2013-01-01T10:42:00Z,26.4040,-81.8810,17.58,1111122 
COMPS,ioos:station:USF.COMPS:BGC:1,2013-01-01T10:48:00Z,26.4040,-81.8810,17.58,1111122 
COMPS,ioos:station:USF.COMPS:BGC:1,2013-01-01T10:54:00Z,26.4040,-81.8810,17.58,1111122 
COMPS,ioos:station:USF.COMPS:BGC:1,2013-01-01T11:00:00Z,26.4040,-81.8810,17.6,1111122 
COMPS,ioos:station:USF.COMPS:BGC:1,2013-01-01T11:06:00Z,26.4040,-81.8810,17.37,1111122 
COMPS,ioos:station:USF.COMPS:BGC:1,2013-01-01T11:12:00Z,26.4040,-81.8810,17.4,1111122 
COMPS,ioos:station:USF.COMPS:BGC:1,2013-01-01T11:18:00Z,26.4040,-81.8810,17.4,1111122 
COMPS,ioos:station:USF.COMPS:BGC:1,2013-01-01T11:24:00Z,26.4040,-81.8810,17.34,1111122 
COMPS,ioos:station:USF.COMPS:BGC:1,2013-01-01T11:30:00Z,26.4040,-81.8810,17.35,1111122 
COMPS,ioos:station:USF.COMPS:BGC:1,2013-01-01T11:36:00Z,26.4040,-81.8810,17.26,1111122 
COMPS,ioos:station:USF.COMPS:BGC:1,2013-01-01T11:42:00Z,26.4040,-81.8810,17.49,1111122 
COMPS,ioos:station:USF.COMPS:BGC:1,2013-01-01T11:48:00Z,26.4040,-81.8810,17.38,1111122 
COMPS,ioos:station:USF.COMPS:BGC:1,2013-01-01T11:54:00Z,26.4040,-81.8810,17.31,1111122 
COMPS,ioos:station:USF.COMPS:BGC:1,2013-01-01T12:00:00Z,26.4040,-81.8810,17.3,1111122 
COMPS,ioos:station:USF.COMPS:BGC:1,2013-01-01T12:06:00Z,26.4040,-81.8810,17.48,1111122 
COMPS,ioos:station:USF.COMPS:BGC:1,2013-01-01T12:12:00Z,26.4040,-81.8810,17.53,1111122 
COMPS,ioos:station:USF.COMPS:BGC:1,2013-01-01T12:18:00Z,26.4040,-81.8810,17.49,1111122 
COMPS,ioos:station:USF.COMPS:BGC:1,2013-01-01T12:24:00Z,26.4040,-81.8810,17.56,1111122 
COMPS,ioos:station:USF.COMPS:BGC:1,2013-01-01T12:30:00Z,26.4040,-81.8810,17.52,1111122 
COMPS,ioos:station:USF.COMPS:BGC:1,2013-01-01T12:36:00Z,26.4040,-81.8810,17.63,1111122 
COMPS,ioos:station:USF.COMPS:BGC:1,2013-01-01T12:42:00Z,26.4040,-81.8810,17.88,1111122 
COMPS,ioos:station:USF.COMPS:BGC:1,2013-01-01T12:48:00Z,26.4040,-81.8810,17.9,1111122 
COMPS,ioos:station:USF.COMPS:BGC:1,2013-01-01T12:54:00Z,26.4040,-81.8810,17.9,1111122 
COMPS,ioos:station:USF.COMPS:BGC:1,2013-01-01T13:00:00Z,26.4040,-81.8810,17.9,1111122 
COMPS,ioos:station:USF.COMPS:BGC:1,2013-01-01T13:06:00Z,26.4040,-81.8810,17.99,1111122 
COMPS,ioos:station:USF.COMPS:BGC:1,2013-01-01T13:12:00Z,26.4040,-81.8810,18.24,1111122 
COMPS,ioos:station:USF.COMPS:BGC:1,2013-01-01T13:18:00Z,26.4040,-81.8810,18.46,1111122 
COMPS,ioos:station:USF.COMPS:BGC:1,2013-01-01T13:24:00Z,26.4040,-81.8810,18.88,1111122 
COMPS,ioos:station:USF.COMPS:BGC:1,2013-01-01T13:30:00Z,26.4040,-81.8810,19.0,1111122 
COMPS,ioos:station:USF.COMPS:BGC:1,2013-01-01T13:36:00Z,26.4040,-81.8810,18.92,1111122 
COMPS,ioos:station:USF.COMPS:BGC:1,2013-01-01T13:42:00Z,26.4040,-81.8810,19.17,1111122 
COMPS,ioos:station:USF.COMPS:BGC:1,2013-01-01T13:48:00Z,26.4040,-81.8810,19.45,1111122 
COMPS,ioos:station:USF.COMPS:BGC:1,2013-01-01T13:54:00Z,26.4040,-81.8810,19.62,1111122 
COMPS,ioos:station:USF.COMPS:BGC:1,2013-01-01T14:00:00Z,26.4040,-81.8810,19.6,1111122 
COMPS,ioos:station:USF.COMPS:BGC:1,2013-01-01T14:06:00Z,26.4040,-81.8810,19.98,1111122 
COMPS,ioos:station:USF.COMPS:BGC:1,2013-01-01T14:12:00Z,26.4040,-81.8810,20.17,1111122 
COMPS,ioos:station:USF.COMPS:BGC:1,2013-01-01T14:18:00Z,26.4040,-81.8810,20.36,1111122 
COMPS,ioos:station:USF.COMPS:BGC:1,2013-01-01T14:24:00Z,26.4040,-81.8810,20.61,1111122 
COMPS,ioos:station:USF.COMPS:BGC:1,2013-01-01T14:30:00Z,26.4040,-81.8810,20.79,1111122 
COMPS,ioos:station:USF.COMPS:BGC:1,2013-01-01T14:36:00Z,26.4040,-81.8810,20.97,1111122 
COMPS,ioos:station:USF.COMPS:BGC:1,2013-01-01T14:42:00Z,26.4040,-81.8810,21.26,1111122 
COMPS,ioos:station:USF.COMPS:BGC:1,2013-01-01T14:48:00Z,26.4040,-81.8810,21.56,1111122 
COMPS,ioos:station:USF.COMPS:BGC:1,2013-01-01T14:54:00Z,26.4040,-81.8810,21.83,1111122 
COMPS,ioos:station:USF.COMPS:BGC:1,2013-01-01T15:00:00Z,26.4040,-81.8810,21.8,1111122 
COMPS,ioos:station:USF.COMPS:BGC:1,2013-01-01T15:06:00Z,26.4040,-81.8810,22.28,1111122 
COMPS,ioos:station:USF.COMPS:BGC:1,2013-01-01T15:12:00Z,26.4040,-81.8810,22.58,1111122 
COMPS,ioos:station:USF.COMPS:BGC:1,2013-01-01T15:18:00Z,26.4040,-81.8810,22.9,1111122 
COMPS,ioos:station:USF.COMPS:BGC:1,2013-01-01T15:24:00Z,26.4040,-81.8810,23.08,1111122 
COMPS,ioos:station:USF.COMPS:BGC:1,2013-01-01T15:30:00Z,26.4040,-81.8810,23.16,1111122 
COMPS,ioos:station:USF.COMPS:BGC:1,2013-01-01T15:36:00Z,26.4040,-81.8810,23.13,1111122 
COMPS,ioos:station:USF.COMPS:BGC:1,2013-01-01T15:42:00Z,26.4040,-81.8810,23.13,1111122 
COMPS,ioos:station:USF.COMPS:BGC:1,2013-01-01T15:48:00Z,26.4040,-81.8810,23.28,1111122 
COMPS,ioos:station:USF.COMPS:BGC:1,2013-01-01T15:54:00Z,26.4040,-81.8810,23.28,1111122 
COMPS,ioos:station:USF.COMPS:BGC:1,2013-01-01T16:00:00Z,26.4040,-81.8810,23.3,1111122 
COMPS,ioos:station:USF.COMPS:BGC:1,2013-01-01T16:06:00Z,26.4040,-81.8810,23.58,1111122 
COMPS,ioos:station:USF.COMPS:BGC:1,2013-01-01T16:12:00Z,26.4040,-81.8810,23.5,1111122 
COMPS,ioos:station:USF.COMPS:BGC:1,2013-01-01T16:18:00Z,26.4040,-81.8810,23.58,1111122 
COMPS,ioos:station:USF.COMPS:BGC:1,2013-01-01T16:24:00Z,26.4040,-81.8810,23.51,1111122 
COMPS,ioos:station:USF.COMPS:BGC:1,2013-01-01T16:30:00Z,26.4040,-81.8810,23.52,1111122 
COMPS,ioos:station:USF.COMPS:BGC:1,2013-01-01T16:36:00Z,26.4040,-81.8810,23.62,1111122 
COMPS,ioos:station:USF.COMPS:BGC:1,2013-01-01T16:42:00Z,26.4040,-81.8810,23.57,1111122 
COMPS,ioos:station:USF.COMPS:BGC:1,2013-01-01T16:48:00Z,26.4040,-81.8810,23.39,1111122 
COMPS,ioos:station:USF.COMPS:BGC:1,2013-01-01T16:54:00Z,26.4040,-81.8810,23.76,1111122 
COMPS,ioos:station:USF.COMPS:BGC:1,2013-01-01T17:00:00Z,26.4040,-81.8810,23.8,1111122 
COMPS,ioos:station:USF.COMPS:BGC:1,2013-01-01T17:06:00Z,26.4040,-81.8810,22.88,1111122 
COMPS,ioos:station:USF.COMPS:BGC:1,2013-01-01T17:12:00Z,26.4040,-81.8810,23.08,1111122 
COMPS,ioos:station:USF.COMPS:BGC:1,2013-01-01T17:18:00Z,26.4040,-81.8810,22.74,1111122 
COMPS,ioos:station:USF.COMPS:BGC:1,2013-01-01T17:24:00Z,26.4040,-81.8810,22.73,1111122 
COMPS,ioos:station:USF.COMPS:BGC:1,2013-01-01T17:30:00Z,26.4040,-81.8810,22.71,1111122 
COMPS,ioos:station:USF.COMPS:BGC:1,2013-01-01T17:36:00Z,26.4040,-81.8810,22.53,1111122 
COMPS,ioos:station:USF.COMPS:BGC:1,2013-01-01T17:42:00Z,26.4040,-81.8810,22.73,1111122 
COMPS,ioos:station:USF.COMPS:BGC:1,2013-01-01T17:48:00Z,26.4040,-81.8810,22.64,1111122 
COMPS,ioos:station:USF.COMPS:BGC:1,2013-01-01T17:54:00Z,26.4040,-81.8810,22.45,1111122 
COMPS,ioos:station:USF.COMPS:BGC:1,2013-01-01T18:00:00Z,26.4040,-81.8810,22.5,1111122 
COMPS,ioos:station:USF.COMPS:BGC:1,2013-01-01T18:06:00Z,26.4040,-81.8810,22.74,1111122 
COMPS,ioos:station:USF.COMPS:BGC:1,2013-01-01T18:12:00Z,26.4040,-81.8810,23.47,1111122 
COMPS,ioos:station:USF.COMPS:BGC:1,2013-01-01T18:18:00Z,26.4040,-81.8810,23.26,1111122 
COMPS,ioos:station:USF.COMPS:BGC:1,2013-01-01T18:24:00Z,26.4040,-81.8810,23.19,1111122 
COMPS,ioos:station:USF.COMPS:BGC:1,2013-01-01T18:30:00Z,26.4040,-81.8810,22.9,1111122 
COMPS,ioos:station:USF.COMPS:BGC:1,2013-01-01T18:36:00Z,26.4040,-81.8810,22.72,1111122 
COMPS,ioos:station:USF.COMPS:BGC:1,2013-01-01T18:42:00Z,26.4040,-81.8810,22.82,1111122 
COMPS,ioos:station:USF.COMPS:BGC:1,2013-01-01T18:48:00Z,26.4040,-81.8810,22.99,1111122 
COMPS,ioos:station:USF.COMPS:BGC:1,2013-01-01T18:54:00Z,26.4040,-81.8810,23.58,1111122 
COMPS,ioos:station:USF.COMPS:BGC:1,2013-01-01T19:00:00Z,26.4040,-81.8810,23.6,1111122 
COMPS,ioos:station:USF.COMPS:BGC:1,2013-01-01T19:06:00Z,26.4040,-81.8810,23.27,1111122 
COMPS,ioos:station:USF.COMPS:BGC:1,2013-01-01T19:12:00Z,26.4040,-81.8810,23.65,1111122 
COMPS,ioos:station:USF.COMPS:BGC:1,2013-01-01T19:18:00Z,26.4040,-81.8810,23.4,1111122 
COMPS,ioos:station:USF.COMPS:BGC:1,2013-01-01T19:24:00Z,26.4040,-81.8810,23.49,1111122 
COMPS,ioos:station:USF.COMPS:BGC:1,2013-01-01T19:30:00Z,26.4040,-81.8810,23.63,1111122 
COMPS,ioos:station:USF.COMPS:BGC:1,2013-01-01T19:36:00Z,26.4040,-81.8810,23.57,1111122 
COMPS,ioos:station:USF.COMPS:BGC:1,2013-01-01T19:42:00Z,26.4040,-81.8810,23.33,1111122 
COMPS,ioos:station:USF.COMPS:BGC:1,2013-01-01T19:48:00Z,26.4040,-81.8810,23.01,1111122 
COMPS,ioos:station:USF.COMPS:BGC:1,2013-01-01T19:54:00Z,26.4040,-81.8810,22.69,1111122 
COMPS,ioos:station:USF.COMPS:BGC:1,2013-01-01T20:00:00Z,26.4040,-81.8810,22.7,1111122 
COMPS,ioos:station:USF.COMPS:BGC:1,2013-01-01T20:06:00Z,26.4040,-81.8810,22.41,1111122 
COMPS,ioos:station:USF.COMPS:BGC:1,2013-01-01T20:12:00Z,26.4040,-81.8810,22.03,1111122 
COMPS,ioos:station:USF.COMPS:BGC:1,2013-01-01T20:18:00Z,26.4040,-81.8810,21.96,1111122 
COMPS,ioos:station:USF.COMPS:BGC:1,2013-01-01T20:24:00Z,26.4040,-81.8810,22.55,1111122 
COMPS,ioos:station:USF.COMPS:BGC:1,2013-01-01T20:30:00Z,26.4040,-81.8810,22.25,1111122 
COMPS,ioos:station:USF.COMPS:BGC:1,2013-01-01T20:36:00Z,26.4040,-81.8810,22.25,1111122 
COMPS,ioos:station:USF.COMPS:BGC:1,2013-01-01T20:42:00Z,26.4040,-81.8810,22.29,1111122 
COMPS,ioos:station:USF.COMPS:BGC:1,2013-01-01T20:48:00Z,26.4040,-81.8810,22.09,1111122 
COMPS,ioos:station:USF.COMPS:BGC:1,2013-01-01T20:54:00Z,26.4040,-81.8810,22.5,1111122 
COMPS,ioos:station:USF.COMPS:BGC:1,2013-01-01T21:00:00Z,26.4040,-81.8810,22.5,1111122 
COMPS,ioos:station:USF.COMPS:BGC:1,2013-01-01T21:06:00Z,26.4040,-81.8810,22.64,1111122 
COMPS,ioos:station:USF.COMPS:BGC:1,2013-01-01T21:12:00Z,26.4040,-81.8810,22.38,1111122 
COMPS,ioos:station:USF.COMPS:BGC:1,2013-01-01T21:18:00Z,26.4040,-81.8810,22.94,1111122 
COMPS,ioos:station:USF.COMPS:BGC:1,2013-01-01T21:24:00Z,26.4040,-81.8810,23.72,1111122 
COMPS,ioos:station:USF.COMPS:BGC:1,2013-01-01T21:30:00Z,26.4040,-81.8810,23.25,1111122 
COMPS,ioos:station:USF.COMPS:BGC:1,2013-01-01T21:36:00Z,26.4040,-81.8810,23.14,1111122 
COMPS,ioos:station:USF.COMPS:BGC:1,2013-01-01T21:42:00Z,26.4040,-81.8810,23.01,1111122 
COMPS,ioos:station:USF.COMPS:BGC:1,2013-01-01T21:48:00Z,26.4040,-81.8810,22.87,1111122 
COMPS,ioos:station:USF.COMPS:BGC:1,2013-01-01T21:54:00Z,26.4040,-81.8810,22.7,1111122 
COMPS,ioos:station:USF.COMPS:BGC:1,2013-01-01T22:00:00Z,26.4040,-81.8810,22.7,1111122 
COMPS,ioos:station:USF.COMPS:BGC:1,2013-01-01T22:06:00Z,26.4040,-81.8810,21.81,1111122 
COMPS,ioos:station:USF.COMPS:BGC:1,2013-01-01T22:12:00Z,26.4040,-81.8810,21.72,1111122 
COMPS,ioos:station:USF.COMPS:BGC:1,2013-01-01T22:18:00Z,26.4040,-81.8810,21.7,1111122 
COMPS,ioos:station:USF.COMPS:BGC:1,2013-01-01T22:24:00Z,26.4040,-81.8810,21.77,1111122 
COMPS,ioos:station:USF.COMPS:BGC:1,2013-01-01T22:30:00Z,26.4040,-81.8810,21.8,1111122 
COMPS,ioos:station:USF.COMPS:BGC:1,2013-01-01T22:36:00Z,26.4040,-81.8810,21.77,1111122 
COMPS,ioos:station:USF.COMPS:BGC:1,2013-01-01T22:42:00Z,26.4040,-81.8810,21.81,1111122 
COMPS,ioos:station:USF.COMPS:BGC:1,2013-01-01T22:48:00Z,26.4040,-81.8810,21.82,1111122 
COMPS,ioos:station:USF.COMPS:BGC:1,2013-01-01T22:54:00Z,26.4040,-81.8810,21.91,1111122 
COMPS,ioos:station:USF.COMPS:BGC:1,2013-01-01T23:00:00Z,26.4040,-81.8810,21.9,1111122 
COMPS,ioos:station:USF.COMPS:BGC:1,2013-01-01T23:06:00Z,26.4040,-81.8810,22.04,1111122 
COMPS,ioos:station:USF.COMPS:BGC:1,2013-01-01T23:12:00Z,26.4040,-81.8810,22.04,1111122 
COMPS,ioos:station:USF.COMPS:BGC:1,2013-01-01T23:18:00Z,26.4040,-81.8810,22.3,1111122 
COMPS,ioos:station:USF.COMPS:BGC:1,2013-01-01T23:24:00Z,26.4040,-81.8810,22.35,1111122 
COMPS,ioos:station:USF.COMPS:BGC:1,2013-01-01T23:30:00Z,26.4040,-81.8810,22.34,1111122 
COMPS,ioos:station:USF.COMPS:BGC:1,2013-01-01T23:36:00Z,26.4040,-81.8810,22.32,1111122 
COMPS,ioos:station:USF.COMPS:BGC:1,2013-01-01T23:42:00Z,26.4040,-81.8810,22.32,1111122 
COMPS,ioos:station:USF.COMPS:BGC:1,2013-01-01T23:48:00Z,26.4040,-81.8810,22.17,1111122 
COMPS,ioos:station:USF.COMPS:BGC:1,2013-01-01T23:54:00Z,26.4040,-81.8810,21.85,1111122 
COMPS,ioos:station:USF.COMPS:BGC:1,2013-01-02T00:00:00Z,26.4040,-81.8810,21.9,1111122 
COMPS,ioos:station:USF.COMPS:BGC:1,2013-01-02T00:06:00Z,26.4040,-81.8810,21.81,1111122 
COMPS,ioos:station:USF.COMPS:BGC:1,2013-01-02T00:12:00Z,26.4040,-81.8810,21.62,1111122 
COMPS,ioos:station:USF.COMPS:BGC:1,2013-01-02T00:18:00Z,26.4040,-81.8810,21.07,1111122 
COMPS,ioos:station:USF.COMPS:BGC:1,2013-01-02T00:24:00Z,26.4040,-81.8810,20.64,1111122 
COMPS,ioos:station:USF.COMPS:BGC:1,2013-01-02T00:30:00Z,26.4040,-81.8810,20.63,1111122 
COMPS,ioos:station:USF.COMPS:BGC:1,2013-01-02T00:36:00Z,26.4040,-81.8810,21.04,1111122 
COMPS,ioos:station:USF.COMPS:BGC:1,2013-01-02T00:42:00Z,26.4040,-81.8810,21.33,1111122 
COMPS,ioos:station:USF.COMPS:BGC:1,2013-01-02T00:48:00Z,26.4040,-81.8810,21.53,1111122 
COMPS,ioos:station:USF.COMPS:BGC:1,2013-01-02T00:54:00Z,26.4040,-81.8810,21.82,1111122 
COMPS,ioos:station:USF.COMPS:BGC:1,2013-01-02T01:00:00Z,26.4040,-81.8810,21.8,1111122 
COMPS,ioos:station:USF.COMPS:BGC:1,2013-01-02T01:06:00Z,26.4040,-81.8810,21.96,1111122 
COMPS,ioos:station:USF.COMPS:BGC:1,2013-01-02T01:12:00Z,26.4040,-81.8810,21.87,1111122 
COMPS,ioos:station:USF.COMPS:BGC:1,2013-01-02T01:18:00Z,26.4040,-81.8810,21.88,1111122 
COMPS,ioos:station:USF.COMPS:BGC:1,2013-01-02T01:24:00Z,26.4040,-81.8810,21.85,1111122 
COMPS,ioos:station:USF.COMPS:BGC:1,2013-01-02T01:30:00Z,26.4040,-81.8810,21.85,1111122 
COMPS,ioos:station:USF.COMPS:BGC:1,2013-01-02T01:36:00Z,26.4040,-81.8810,21.78,1111122 
COMPS,ioos:station:USF.COMPS:BGC:1,2013-01-02T01:42:00Z,26.4040,-81.8810,21.69,1111122 
COMPS,ioos:station:USF.COMPS:BGC:1,2013-01-02T01:48:00Z,26.4040,-81.8810,21.55,1111122 
COMPS,ioos:station:USF.COMPS:BGC:1,2013-01-02T01:54:00Z,26.4040,-81.8810,21.37,1111122 
COMPS,ioos:station:USF.COMPS:BGC:1,2013-01-02T02:00:00Z,26.4040,-81.8810,21.4,1111122 
COMPS,ioos:station:USF.COMPS:BGC:1,2013-01-02T02:06:00Z,26.4040,-81.8810,21.44,1111122 
COMPS,ioos:station:USF.COMPS:BGC:1,2013-01-02T02:12:00Z,26.4040,-81.8810,21.43,1111122 
COMPS,ioos:station:USF.COMPS:BGC:1,2013-01-02T02:18:00Z,26.4040,-81.8810,21.48,1111122 
COMPS,ioos:station:USF.COMPS:BGC:1,2013-01-02T02:24:00Z,26.4040,-81.8810,21.57,1111122 
COMPS,ioos:station:USF.COMPS:BGC:1,2013-01-02T02:30:00Z,26.4040,-81.8810,21.27,1111122 
COMPS,ioos:station:USF.COMPS:BGC:1,2013-01-02T02:36:00Z,26.4040,-81.8810,21.24,1111122 
COMPS,ioos:station:USF.COMPS:BGC:1,2013-01-02T02:42:00Z,26.4040,-81.8810,21.16,1111122 
COMPS,ioos:station:USF.COMPS:BGC:1,2013-01-02T02:48:00Z,26.4040,-81.8810,21.17,1111122 
COMPS,ioos:station:USF.COMPS:BGC:1,2013-01-02T02:54:00Z,26.4040,-81.8810,21.2,1111122 
COMPS,ioos:station:USF.COMPS:BGC:1,2013-01-02T03:00:00Z,26.4040,-81.8810,21.2,1111122 
COMPS,ioos:station:USF.COMPS:BGC:1,2013-01-02T03:06:00Z,26.4040,-81.8810,21.26,1111122 